Content
SEND FEEDBACK

Daily
Averages
Monthly
Summary
United States of America

ROCK HILL, NEW YORK


Home > North America > United States > New York
Elevation: 1260 feet     Latitude: 41 35N     Longitude: 074 37W

WEATHER
 
SELECT A DAY
Number of Records: 443,433;   Date Range: 1/1/95 - 7/26/14
 
SHARE

PRINT THIS DATA

[ ← Previous Day ]
WEATHER ALMANAC - MAY 7, 2014
[ Next Day → ]
[ °C ]   °F
Weather ElementAverageHighLow
Temperature51.8 °F66.2 °F (4:15 pm)33.8 °F (5:15 am)
Dewpoint27.8 °F33.8 °F (8:35 pm)21.2 °F (1:35 pm)
Humidity43.9 %81 % (5:55 am)19 % (4:15 pm)
Barometer30.18 in30.25 in (9:35 am)30.13 in (12:35 am)
Wind Speed3.3 mph10.4 mph (1:35 pm)
Weather ElementAverage
Visibility10 mi
Wind DirectionSSE (152.7 °)

Weather ElementTotal
Precipitation---
Heating Degree Days15 (Base 65)
Averaged from 70 records on May 7, 2014
WEATHER CONDITIONS BREAKOUT
WIND DIRECTION BREAKOUT
WEATHER BY HOUR - MAY 7, 2014
[ °C ]   °F
Local TimeTemperatureDewpointHumidityBarometerVisibilityWind DirectionWind SpeedGust SpeedPrecipitationEventsConditions
12:35 AM42.8 °F26.6 °F53 %30.13 in10.0 miNW (310°)5.8 mphClear
12:55 AM41.0 °F26.6 °F57 %30.13 in10.0 miCalmClear
1:15 AM42.8 °F26.6 °F53 %30.14 in10.0 miNNW (330°)6.9 mphClear
1:35 AM42.8 °F26.6 °F53 %30.14 in10.0 miNW (320°)6.9 mphClear
1:55 AM41.0 °F26.6 °F57 %30.15 in10.0 miNW (310°)5.8 mphClear
2:15 AM42.8 °F26.6 °F53 %30.15 in10.0 miNW (310°)6.9 mphClear
2:35 AM39.2 °F28.4 °F65 %30.14 in10.0 miNW (310°)6.9 mphClear
2:55 AM39.2 °F26.6 °F61 %30.15 in10.0 miCalmClear
3:15 AM39.2 °F28.4 °F65 %30.15 in10.0 miNW (320°)3.5 mphClear
3:35 AM39.2 °F26.6 °F61 %30.16 in10.0 miCalmClear
3:55 AM39.2 °F28.4 °F65 %30.16 in10.0 miNorth (360°)3.5 mphClear
4:15 AM39.2 °F28.4 °F65 %30.16 in10.0 miCalmClear
4:35 AM37.4 °F26.6 °F65 %30.17 in10.0 miNorth (360°)3.5 mphClear
4:55 AM35.6 °F26.6 °F70 %30.17 in10.0 miNorth (350°)4.6 mphClear
5:15 AM33.8 °F26.6 °F75 %30.17 in10.0 miNW (310°)3.5 mphClear
5:35 AM35.6 °F28.4 °F75 %30.17 in10.0 miWNW (300°)3.5 mphClear
5:55 AM33.8 °F28.4 °F81 %30.17 in10.0 miNW (320°)3.5 mphClear
6:15 AM33.8 °F28.4 °F81 %30.18 in10.0 miCalmClear
6:35 AM33.8 °F28.4 °F81 %30.18 in10.0 miCalmClear
6:55 AM35.6 °F30.2 °F81 %30.19 in10.0 miCalmClear
7:15 AM39.2 °F32.0 °F75 %30.19 in10.0 miNW (320°)3.5 mphClear
7:35 AM42.8 °F32.0 °F66 %30.20 in10.0 miWNW (300°)3.5 mphClear
7:55 AM44.6 °F30.2 °F57 %30.21 in10.0 miCalmClear
8:15 AM46.4 °F30.2 °F53 %30.22 in10.0 miNW (310°)3.5 mphClear
8:35 AM46.4 °F28.4 °F50 %30.23 in10.0 miCalmClear
8:55 AM48.2 °F28.4 °F46 %30.24 in10.0 miCalmClear
9:15 AM50.0 °F28.4 °F43 %30.24 in10.0 miCalmClear
9:35 AM50.0 °F26.6 °F40 %30.25 in10.0 miCalmClear
9:55 AM51.8 °F26.6 °F38 %30.25 in10.0 miCalmClear
10:15 AM51.8 °F26.6 °F38 %30.25 in10.0 miCalmClear
10:35 AM53.6 °F26.6 °F35 %30.25 in10.0 miWSW (250°)3.5 mphClear
10:55 AM55.4 °F28.4 °F36 %30.24 in10.0 miSSW (210°)5.8 mphClear
11:15 AM55.4 °F28.4 °F36 %30.24 in10.0 miCalmClear
11:35 AM55.4 °F28.4 °F36 %30.23 in10.0 miCalmClear
11:55 AM57.2 °F24.8 °F29 %30.22 in10.0 miSSW (210°)3.5 mphClear
12:15 PM60.8 °F26.6 °F27 %30.22 in10.0 miSouth (180°)4.6 mphClear
12:35 PM60.8 °F26.6 °F27 %30.22 in10.0 miSW (230°)8.1 mphClear
1:15 PM60.8 °F24.8 °F25 %30.21 in10.0 miWSW (240°)8.1 mphClear
1:35 PM60.8 °F21.2 °F22 %30.21 in10.0 miWSW (240°)10.4 mphClear
1:55 PM62.6 °F24.8 °F24 %30.21 in10.0 miNW (310°)8.1 mphClear
2:15 PM62.6 °F24.8 °F24 %30.20 in10.0 miWest (280°)8.1 mphClear
2:35 PM62.6 °F23.0 °F22 %30.19 in10.0 miWest (270°)5.8 mphClear
2:55 PM64.4 °F23.0 °F21 %30.18 in10.0 miNNW (330°)8.1 mphClear
3:15 PM62.6 °F23.0 °F22 %30.17 in10.0 miNNE (20°)4.6 mphClear
3:35 PM62.6 °F23.0 °F22 %30.17 in10.0 miCalmClear
3:55 PM64.4 °F23.0 °F21 %30.17 in10.0 miCalmClear
4:15 PM66.2 °F23.0 °F19 %30.16 in10.0 miSSW (210°)5.8 mphClear
4:35 PM64.4 °F23.0 °F21 %30.16 in10.0 miCalmClear
4:55 PM64.4 °F24.8 °F22 %30.16 in10.0 miWest (260°)3.5 mphClear
5:15 PM66.2 °F24.8 °F21 %30.15 in10.0 miWest (270°)3.5 mphClear
5:35 PM64.4 °F23.0 °F21 %30.16 in10.0 miWest (280°)5.8 mphClear
5:55 PM64.4 °F26.6 °F24 %30.16 in10.0 miCalmClear
6:15 PM64.4 °F26.6 °F24 %30.16 in10.0 miCalmClear
6:35 PM64.4 °F24.8 °F22 %30.15 in10.0 miCalmClear
6:55 PM64.4 °F26.6 °F24 %30.16 in10.0 miCalmClear
7:15 PM64.4 °F26.6 °F24 %30.16 in10.0 miCalmClear
7:35 PM64.4 °F26.6 °F24 %30.17 in10.0 miCalmClear
7:55 PM60.8 °F28.4 °F29 %30.17 in10.0 miSouth (180°)10.4 mphClear
8:15 PM60.8 °F32.0 °F34 %30.17 in10.0 miSSW (200°)8.1 mphClear
8:35 PM59.0 °F33.8 °F39 %30.17 in10.0 miSSW (200°)6.9 mphClear
8:55 PM57.2 °F33.8 °F41 %30.17 in10.0 miSSW (210°)8.1 mphClear
9:15 PM55.4 °F33.8 °F44 %30.18 in10.0 miSSW (200°)5.8 mphClear
9:35 PM55.4 °F33.8 °F44 %30.18 in10.0 miSSW (210°)6.9 mphClear
9:55 PM55.4 °F33.8 °F44 %30.19 in10.0 miSSW (210°)6.9 mphClear
10:15 PM53.6 °F33.8 °F47 %30.19 in10.0 miSouth (190°)4.6 mphClear
10:35 PM53.6 °F33.8 °F47 %30.19 in10.0 miCalmClear
10:55 PM53.6 °F33.8 °F47 %30.19 in10.0 miCalmClear
11:15 PM50.0 °F33.8 °F54 %30.19 in10.0 miCalmClear
11:35 PM50.0 °F33.8 °F54 %30.19 in10.0 miCalmClear
11:55 PM50.0 °F33.8 °F54 %30.19 in10.0 miSSE (160°)3.5 mphClear
Hourly data recorded from KMSV, located miles away from Rock Hill, New York







STORIES FROM OUR PARTNERS